• In Russia
  • List of Countries
  • For 7 days
  • Water Temperature
  • Satellite Maps
  • Weather Map
  • Weather Widgets
  • user-avatar
    Login

    Hourly Weather Dinagepoor

    Today, 18 July, Wednesday

    Time Temperature Precipitation Wind Pressure Humidity
    00:00 +31°C° 0 mm 3 mps 748 mmHg 75%
    01:00 +31°C° 0.5 mm 3 mps 747 mmHg 77%
    02:00 +31°C° 0.5 mm 3 mps 747 mmHg 79%
    03:00 +30°C° 0.5 mm 3 mps 747 mmHg 81%
    04:00 +30°C° 0 mm 3 mps 747 mmHg 82%
    05:00 +30°C° 0 mm 3 mps 747 mmHg 83%
    06:00 +30°C° 0 mm 4 mps 747 mmHg 85%
    07:00 +32°C° 0 mm 4 mps 747 mmHg 80%
    08:00 +33°C° 0 mm 4 mps 747 mmHg 75%
    09:00 +34°C° 0 mm 4 mps 748 mmHg 70%
    10:00 +35°C° 0 mm 4 mps 747 mmHg 66%
    11:00 +36°C° 0 mm 4 mps 747 mmHg 61%
    12:00 +37°C° 0 mm 4 mps 746 mmHg 57%
    13:00 +38°C° 0 mm 4 mps 746 mmHg 54%
    14:00 +38°C° 0 mm 4 mps 745 mmHg 52%
    15:00 +40°C° 0 mm 4 mps 744 mmHg 50%
    16:00 +40°C° 0 mm 4 mps 744 mmHg 52%
    17:00 +38°C° 0 mm 4 mps 744 mmHg 53%
    18:00 +38°C° 0 mm 3 mps 743 mmHg 54%
    19:00 +37°C° 0 mm 3 mps 744 mmHg 57%
    20:00 +36°C° 0 mm 3 mps 744 mmHg 60%
    21:00 +36°C° 0 mm 2 mps 745 mmHg 63%
    22:00 +35°C° 0.1 mm 2 mps 745 mmHg 65%
    23:00 +35°C° 0.1 mm 2 mps 745 mmHg 67%

    Tomorrow, 19 July, Thursday

    Time Temperature Precipitation Wind Pressure Humidity
    00:00 +34°C° 0.1 mm 2 mps 746 mmHg 70%
    01:00 +34°C° 1.3 mm 2 mps 746 mmHg 72%
    02:00 +32°C° 1.3 mm 2 mps 746 mmHg 75%
    03:00 +32°C° 1.3 mm 2 mps 746 mmHg 78%
    04:00 +32°C° 0.1 mm 2 mps 746 mmHg 79%
    05:00 +31°C° 0.1 mm 2 mps 746 mmHg 80%
    06:00 +31°C° 0.1 mm 2 mps 746 mmHg 81%
    07:00 +33°C° 0 mm 3 mps 746 mmHg 75%
    08:00 +34°C° 0 mm 3 mps 746 mmHg 70%
    09:00 +35°C° 0 mm 3 mps 746 mmHg 64%
    10:00 +37°C° 0 mm 3 mps 746 mmHg 59%
    11:00 +38°C° 0 mm 3 mps 746 mmHg 53%
    12:00 +39°C° 0 mm 3 mps 745 mmHg 48%
    13:00 +40°C° 0 mm 3 mps 745 mmHg 46%
    14:00 +40°C° 0 mm 3 mps 744 mmHg 44%
    15:00 +42°C° 0 mm 3 mps 743 mmHg 43%
    16:00 +40°C° 0 mm 2 mps 743 mmHg 45%
    17:00 +40°C° 0 mm 2 mps 743 mmHg 47%
    18:00 +39°C° 0 mm 2 mps 742 mmHg 50%
    19:00 +38°C° 0 mm 2 mps 743 mmHg 52%
    20:00 +38°C° 0 mm 2 mps 744 mmHg 55%
    21:00 +37°C° 0 mm 2 mps 744 mmHg 58%
    22:00 +36°C° 0 mm 2 mps 744 mmHg 60%
    23:00 +36°C° 0 mm 2 mps 745 mmHg 62%

    Day after tomorrow, 20 July, Friday

    Time Temperature Precipitation Wind Pressure Humidity
    00:00 +35°C° 0 mm 3 mps 745 mmHg 65%
    01:00 +35°C° 0 mm 2 mps 745 mmHg 66%
    02:00 +35°C° 0 mm 2 mps 744 mmHg 68%
    03:00 +34°C° 0 mm 2 mps 744 mmHg 70%
    04:00 +33°C° 0 mm 1 mps 744 mmHg 71%
    05:00 +33°C° 0 mm 1 mps 744 mmHg 73%
    06:00 +33°C° 0 mm 1 mps 744 mmHg 75%
    07:00 +34°C° 0 mm 1 mps 744 mmHg 69%
    08:00 +35°C° 0 mm 1 mps 744 mmHg 64%
    09:00 +37°C° 0 mm 2 mps 744 mmHg 59%
    10:00 +38°C° 0 mm 2 mps 744 mmHg 54%
    11:00 +39°C° 0 mm 2 mps 744 mmHg 50%
    12:00 +40°C° 0 mm 2 mps 744 mmHg 45%
    13:00 +41°C° 0 mm 2 mps 743 mmHg 44%
    14:00 +41°C° 0 mm 2 mps 742 mmHg 42%
    15:00 +41°C° 0 mm 2 mps 742 mmHg 41%
    16:00 +41°C° 0 mm 1 mps 742 mmHg 42%
    17:00 +41°C° 0 mm 1 mps 741 mmHg 43%
    18:00 +41°C° 0 mm 1 mps 741 mmHg 44%
    19:00 +40°C° 0 mm 1 mps 742 mmHg 46%
    20:00 +39°C° 0 mm 1 mps 743 mmHg 48%
    21:00 +38°C° 0 mm 2 mps 743 mmHg 51%
    22:00 +38°C° 0 mm 2 mps 743 mmHg 52%
    23:00 +37°C° 0 mm 2 mps 743 mmHg 54%

    21 July, Saturday

    Time Temperature Precipitation Wind Pressure Humidity
    00:00 +37°C° 0 mm 2 mps 743 mmHg 56%
    01:00 +36°C° 0 mm 2 mps 743 mmHg 57%
    02:00 +35°C° 0 mm 1 mps 742 mmHg 59%
    03:00 +35°C° 0 mm 1 mps 742 mmHg 60%
    04:00 +34°C° 0 mm 1 mps 742 mmHg 62%
    05:00 +34°C° 0 mm 1 mps 742 mmHg 64%
    06:00 +34°C° 0 mm 1 mps 741 mmHg 66%
    07:00 +35°C° 0 mm 1 mps 742 mmHg 61%
    08:00 +36°C° 0 mm 1 mps 742 mmHg 57%
    09:00 +37°C° 0 mm 1 mps 743 mmHg 53%
    10:00 +39°C° 0 mm 2 mps 743 mmHg 49%
    11:00 +40°C° 0 mm 2 mps 743 mmHg 46%
    12:00 +41°C° 0 mm 2 mps 743 mmHg 42%
    13:00 +42°C° 0 mm 2 mps 742 mmHg 41%
    14:00 +42°C° 0 mm 2 mps 741 mmHg 39%
    15:00 +43°C° 0 mm 2 mps 741 mmHg 38%
    16:00 +42°C° 0 mm 2 mps 741 mmHg 39%
    17:00 +42°C° 0 mm 2 mps 741 mmHg 41%
    18:00 +41°C° 0 mm 2 mps 741 mmHg 43%
    19:00 +40°C° 0 mm 3 mps 741 mmHg 46%
    20:00 +39°C° 0 mm 3 mps 742 mmHg 50%
    21:00 +38°C° 0 mm 3 mps 742 mmHg 53%
    22:00 +37°C° 0.6 mm 4 mps 742 mmHg 57%
    23:00 +36°C° 0.6 mm 4 mps 742 mmHg 62%

    22 July, Sunday

    Time Temperature Precipitation Wind Pressure Humidity
    00:00 +35°C° 0.6 mm 4 mps 742 mmHg 67%
    01:00 +35°C° 0.5 mm 3 mps 742 mmHg 68%
    02:00 +34°C° 0.5 mm 3 mps 741 mmHg 68%
    03:00 +34°C° 0.5 mm 2 mps 741 mmHg 69%
    04:00 +34°C° 0.1 mm 3 mps 741 mmHg 69%
    05:00 +33°C° 0.1 mm 3 mps 742 mmHg 70%
    06:00 +33°C° 0.1 mm 3 mps 742 mmHg 70%
    07:00 +34°C° 0 mm 4 mps 742 mmHg 64%
    08:00 +35°C° 0 mm 5 mps 743 mmHg 59%
    09:00 +36°C° 0 mm 6 mps 743 mmHg 54%
    10:00 +35°C° 0.1 mm 8 mps 743 mmHg 58%
    11:00 +34°C° 0.1 mm 10 mps 743 mmHg 62%
    12:00 +34°C° 0.1 mm 11 mps 743 mmHg 66%
    13:00 +33°C° 0.5 mm 11 mps 743 mmHg 70%
    14:00 +32°C° 0.5 mm 11 mps 743 mmHg 73%
    15:00 +31°C° 0.5 mm 10 mps 743 mmHg 77%
    16:00 +32°C° 0.1 mm 10 mps 743 mmHg 75%
    17:00 +32°C° 0.1 mm 10 mps 743 mmHg 73%
    18:00 +32°C° 0.1 mm 10 mps 744 mmHg 72%
    19:00 +32°C° 1 mm 10 mps 744 mmHg 74%
    20:00 +31°C° 1 mm 10 mps 745 mmHg 76%
    21:00 +31°C° 1 mm 9 mps 746 mmHg 78%
    22:00 +31°C° 0.1 mm 9 mps 746 mmHg 79%
    23:00 +29°C° 0.1 mm 8 mps 746 mmHg 80%

    23 July, Monday

    Time Temperature Precipitation Wind Pressure Humidity
    00:00 +29°C° 0.1 mm 8 mps 746 mmHg 82%
    01:00 +29°C° 0.2 mm 7 mps 746 mmHg 82%
    02:00 +29°C° 0.2 mm 7 mps 746 mmHg 82%
    03:00 +29°C° 0.2 mm 7 mps 746 mmHg 83%
    04:00 +29°C° 0 mm 7 mps 746 mmHg 83%
    05:00 +29°C° 0 mm 7 mps 746 mmHg 83%
    06:00 +29°C° 0 mm 7 mps 746 mmHg 84%
    07:00 +30°C° 0 mm 7 mps 747 mmHg 79%
    08:00 +32°C° 0 mm 8 mps 747 mmHg 75%
    09:00 +33°C° 0 mm 8 mps 747 mmHg 71%
    10:00 +34°C° 0.2 mm 8 mps 747 mmHg 66%
    11:00 +35°C° 0.2 mm 8 mps 747 mmHg 61%
    12:00 +38°C° 0.2 mm 8 mps 747 mmHg 57%
    13:00 +36°C° 1.4 mm 7 mps 746 mmHg 59%
    14:00 +36°C° 1.4 mm 7 mps 746 mmHg 61%
    15:00 +35°C° 1.4 mm 6 mps 746 mmHg 63%
    16:00 +35°C° 1.2 mm 6 mps 746 mmHg 65%
    17:00 +34°C° 1.2 mm 5 mps 746 mmHg 67%
    18:00 +34°C° 1.2 mm 5 mps 746 mmHg 69%
    19:00 +33°C° 0.1 mm 4 mps 746 mmHg 72%
    20:00 +33°C° 0.1 mm 4 mps 747 mmHg 75%
    21:00 +31°C° 0.1 mm 3 mps 747 mmHg 79%
    22:00 +31°C° 0.3 mm 3 mps 747 mmHg 79%
    23:00 +31°C° 0.3 mm 3 mps 748 mmHg 80%
    Show more